OK9CPU-9 Weather Reports


time (UTC)temp
C
wind
direction
speed
KPH
gust
KPH
rain 1hr
cm
rain 24hr
cm
rain mn
cm
humidity
%
barometer
mb
20260503053026 24 0.0 0.0 0.00 0.00 0.00 15 1019.3
20260503051359 21 0.0 0.0 0.00 0.00 0.00 16 1019.3
20260503045716 18 0.0 0.0 0.00 0.00 0.00 17 1019.3
20260503044041 15 0.0 0.0 0.00 0.00 0.00 18 1019.5
20260503042406 11 0.0 0.0 0.00 0.00 0.00 22 1019.4
20260503040731 7 0.0 0.0 0.00 0.00 0.00 25 1019.4
20260503035056 6 0.0 0.0 0.00 0.00 0.00 25 1019.4
20260503033421 6 0.0 0.0 0.00 0.00 0.00 26 1019.4
20260503031746 6 0.0 0.0 0.00 0.00 0.00 26 1019.3
20260503030111 6 0.0 0.0 0.00 0.00 0.00 26 1019.3
20260503024443 6 0.0 0.0 0.00 0.00 0.00 27 1019.3
20260503022801 6 0.0 0.0 0.00 0.00 0.00 27 1019.5
20260503021134 6 0.0 0.0 0.00 0.00 0.00 27 1019.4
20260503015451 6 0.0 0.0 0.00 0.00 0.00 27 1019.4
20260503013823 6 0.0 0.0 0.00 0.00 0.00 27 1019.4
20260503012148 6 0.0 0.0 0.00 0.00 0.00 27 1019.3
20260503010506 7 0.0 0.0 0.00 0.00 0.00 27 1019.3
20260503004831 7 0.0 0.0 0.00 0.00 0.00 27 1019.2
20260503003156 8 0.0 0.0 0.00 0.00 0.00 27 1019.2
20260503001521 8 0.0 0.0 0.00 0.00 0.00 27 1019.2
20260502235846 8 0.0 0.0 0.00 0.00 0.00 27 1019.1
20260502234211 8 0.0 0.0 0.00 0.00 0.00 27 1019.3
20260502232536 8 0.0 0.0 0.00 0.00 0.00 28 1019.4
20260502230908 9 0.0 0.0 0.00 0.00 0.00 28 1019.3
20260502225233 9 0.0 0.0 0.00 0.00 0.00 28 1019.4
20260502223551 10 0.0 0.0 0.00 0.00 0.00 28 1019.5
20260502221923 10 0.0 0.0 0.00 0.00 0.00 28 1019.7
20260502220241 10 0.0 0.0 0.00 0.00 0.00 28 1019.7
20260502214606 10 0.0 0.0 0.00 0.00 0.00 28 1019.7
20260502212938 11 0.0 0.0 0.00 0.00 0.00 28 1019.7
20260502211255 11 0.0 0.0 0.00 0.00 0.00 29 1019.8
20260502205620 12 0.0 0.0 0.00 0.00 0.00 29 1019.8
20260502203945 12 0.0 0.0 0.00 0.00 0.00 29 1020.0
20260502202310 13 0.0 0.0 0.00 0.00 0.00 29 1020.0
20260502200643 13 0.0 0.0 0.00 0.00 0.00 29 1020.1
20260502195000 13 0.0 0.0 0.00 0.00 0.00 29 1020.1
20260502193325 14 0.0 0.0 0.00 0.00 0.00 29 1020.1
20260502191650 15 0.0 0.0 0.00 0.00 0.00 29 1020.0
20260502184340 17 0.0 0.0 0.00 0.00 0.00 29 1019.8
20260502182705 17 0.0 0.0 0.00 0.00 0.00 28 1019.7
20260502181030 18 0.0 0.0 0.00 0.00 0.00 28 1019.4
20260502170417 22 0.0 0.0 0.00 0.00 0.00 26 1019.5
20260502163107 23 0.0 0.0 0.00 0.00 0.00 26 1019.9
20260502161425 24 0.0 0.0 0.00 0.00 0.00 25 1019.9
20260502150812 31 0.0 0.0 0.00 0.00 0.00 20 1020.7
20260502122222 35 0.0 0.0 0.00 0.00 0.00 17 1022.4
20260502120547 35 0.0 0.0 0.00 0.00 0.00 16 1022.6
20260502114912 35 0.0 0.0 0.00 0.00 0.00 16 1022.8
20260502113229 35 0.0 0.0 0.00 0.00 0.00 15 1022.9
20260502111554 36 0.0 0.0 0.00 0.00 0.00 14 1023.1
20260502105927 36 0.0 0.0 0.00 0.00 0.00 14 1023.5
20260502104251 35 0.0 0.0 0.00 0.00 0.00 12 1023.7
20260502102609 38 0.0 0.0 0.00 0.00 0.00 12 1023.8
20260502100941 34 0.0 0.0 0.00 0.00 0.00 13 1024.1
20260502065041 31 0.0 0.0 0.00 0.00 0.00 16 1025.4
20260502063359 28 0.0 0.0 0.00 0.00 0.00 16 1025.5
20260502061731 27 0.0 0.0 0.00 0.00 0.00 16 1025.6
20260502060056 24 0.0 0.0 0.00 0.00 0.00 16 1025.6